Tracking 28790 objects as of 19-Apr-2024
HD Live streaming from Space Station
objects crossing your sky now

COSMOS 1932 DEB

Track COSMOS 1932 DEB now!
10-day predictions


NORAD ID: 38845
Int'l Code: 1988-019G
Perigee: 941.1 km
Apogee: 995.5 km
Inclination: 65.0 °
Period: 104.3 minutes
Semi major axis: 7339 km
RCS: 0.003 m2 (small)
Launch date: March 14, 1988
Source: Commonwealth of Independent States (former USSR) (CIS)
Launch site: TYURATAM MISSILE AND SPACE COMPLEX (TTMTR)

Note: This is SATELLITE DEBRIS
Your satellite tracking list
Your tracking list is empty




NASA's NSSDC Master Catalog

Two Line Element Set (TLE):
1 38845U 88019G   24091.14848528  .00000292  00000-0  35877-3 0  9996
2 38845  65.0452  36.8985 0037039 165.5793 208.5449 13.80762838621949
Source of the keplerian elements: AFSPC